Flag for Denmark Weather past 2 weeks in Aalborg, Denmark

Now
54 °F

Scattered clouds.


Feels Like: 48 °F
Forecast: 48 / 59 °F
Wind: 23 mph from West

Location: Aalborg Airport

Current Time: May 30, 2015 at 2:47:42 PM

Latest Report: May 30, 2015 at 2:20 PM


Visibility: N/A

Pressure: 29.59 "Hg

Humidity: 63%

Dew point: 41 °F

Location of AalborgLocation

Historic Weather in Aalborg — Graph

°F

Aalborg temperature yesterday

Maximum temperature yesterday: 55 °F (at 11:50 AM)
Minimum temperature yesterday: 45 °F (at 2:50 AM)
Average temperature yesterday: 50 °F

Past Weeks' High & Low Weather Summary

 TemperatureHumidityPressure
High61 °F (May 15, 2:20 PM)100% (May 18, 6:20 AM)30.18 "Hg (May 18, 6:20 AM)
Low43 °F (May 18, 4:50 AM)48% (May 15, 1:20 PM)29.39 "Hg (May 19, 2:20 AM)
Average51 °F80%29.86 "Hg
* Reported May 15 1:20 PM — May 30 1:20 PM, Aalborg, Weather by CustomWeather, © 2015

Note: Actual official high and low records may vary slightly from our data, if they occured in-between our weather recording intervals... More about our weather records

Advertising

Aalborg weather history for previous 24 hours

 ConditionsComfort  
Time TempWeatherWind HumidityBarometerVisibility
1:20 PM
Sat, May 30
55 °FScattered clouds.23 mph59%29.56 "HgN/A
12:50 PM54 °FScattered clouds.24 mph63%29.56 "HgN/A
12:20 PM52 °FScattered clouds.21 mph72%29.56 "HgN/A
11:50 AM50 °FPartly sunny.21 mph82%29.53 "HgN/A
11:20 AM50 °FPartly sunny.20 mph76%29.53 "HgN/A
10:50 AM50 °FBroken clouds.16 mph82%29.53 "HgN/A
10:20 AM48 °FSprinkles. Broken clouds.14 mph87%29.50 "HgN/A
9:50 AM48 °FSprinkles. Partly sunny.13 mph94%29.50 "HgN/A
9:20 AM48 °FSprinkles. Broken clouds.15 mph94%29.47 "Hg6 mi
8:50 AM48 °FBroken clouds.7 mph94%29.47 "HgN/A
8:20 AM48 °FLight rain. Broken clouds.8 mph94%29.47 "HgN/A
7:50 AM48 °FLight rain. Broken clouds.7 mph94%29.45 "HgN/A
7:20 AM46 °FBroken clouds.6 mph100%29.45 "HgN/A
6:50 AM46 °FRain. Broken clouds.3 mph100%29.45 "Hg5 mi
6:20 AM46 °FRain. Broken clouds.7 mph100%29.45 "HgN/A
5:50 AM48 °FLight rain. Partly sunny.7 mph94%29.45 "HgN/A
5:20 AM48 °FLight rain. Passing clouds.6 mph94%29.45 "HgN/A
4:50 AM48 °FRain. Partly cloudy.7 mph94%29.45 "Hg4 mi
4:20 AM50 °FRain. Partly cloudy.9 mph94%29.45 "Hg4 mi
3:50 AM48 °FRain. Partly cloudy.5 mph100%29.45 "Hg4 mi
3:20 AM48 °FRain. Partly cloudy.3 mph100%29.47 "Hg4 mi
2:50 AM48 °FRain. Partly cloudy.3 mph100%29.47 "Hg4 mi
2:20 AM48 °FRain. Partly cloudy.5 mph100%29.50 "Hg4 mi
1:50 AM48 °FRain. Partly cloudy.6 mph94%29.50 "Hg4 mi
1:20 AM48 °FRain. Partly cloudy.6 mph94%29.53 "Hg4 mi
12:50 AM48 °FRain. Partly cloudy.8 mph94%29.53 "Hg4 mi
12:20 AM50 °FRain. Partly cloudy.12 mph88%29.56 "Hg4 mi
11:50 PM
Fri, May 29
50 °FLight rain. Partly cloudy.12 mph88%29.56 "HgN/A
11:20 PM50 °FLight rain. Partly cloudy.12 mph94%29.59 "HgN/A
10:20 PM50 °FRain. Broken clouds.12 mph88%29.59 "Hg4 mi
9:50 PM50 °FLight rain. Broken clouds.12 mph88%29.59 "Hg4 mi
9:20 PM50 °FSprinkles. Broken clouds.12 mph88%29.62 "HgN/A
8:50 PM50 °FSprinkles. Broken clouds.10 mph88%29.62 "HgN/A
8:20 PM50 °FSprinkles. Broken clouds.7 mph88%29.62 "HgN/A
7:50 PM50 °FSprinkles. Broken clouds.7 mph88%29.65 "HgN/A
7:20 PM50 °FSprinkles. Partly sunny.6 mph88%29.65 "HgN/A
6:50 PM50 °FSprinkles. Broken clouds.6 mph88%29.65 "HgN/A
6:20 PM48 °FSprinkles. Partly sunny.5 mph94%29.68 "HgN/A
5:50 PM50 °FSprinkles. Fog.10 mph88%29.68 "Hg3 mi
5:20 PM52 °FPartly sunny.6 mph77%29.68 "HgN/A
4:50 PM52 °FBroken clouds.2 mph77%29.68 "HgN/A
4:20 PM52 °FBroken clouds.3 mph82%29.68 "HgN/A
3:50 PM50 °FBroken clouds.12 mph88%29.71 "HgN/A
3:20 PM50 °FSprinkles. Broken clouds.20 mph82%29.71 "Hg4 mi
2:50 PM54 °FBroken clouds.12 mph72%29.68 "HgN/A
2:20 PM50 °FSprinkles. Broken clouds.16 mph82%29.71 "HgN/A
Weather by CustomWeather, © 2015

See weather overviewHow to use our weather pages